Tracking 19827 objects as of 21-Aug-2019
HD Live streaming from Space Station
objects crossing your sky now

METEOR 2-5 DEB

Track METEOR 2-5 DEB now!
10-day predictions


NORAD ID: 36899
Int'l Code: 1979-095AQ
Perigee: 549.5 km
Apogee: 549.7 km
Inclination: 81.1 °
Period: 95.5 minutes
Semi major axis: 6920 km
RCS: 0.0161 m2 (small)
Launch date: October 31, 1979
Source: Commonwealth of Independent States (former USSR) (CIS)
Launch site: PLESETSK MISSILE AND SPACE COMPLEX (PKMTR)

Note: This is SATELLITE DEBRIS
aabbcc
Your satellite tracking list
Your tracking list is empty




NASA's NSSDC Master Catalog

Two Line Element Set (TLE):
1 36899U 79095AQ  19233.52082743  .00004015  00000-0  26010-3 0  9996
2 36899  81.0900 309.9592 0000160 105.4845 254.6397 15.07947476872098
Source of the keplerian elements: AFSPC